[[{"header":{"parameterUnit":"m.s-1","parameterCategory":1,"la1":30.2991,"la2":30.254,"lo1":-89.0895,"lo2":-89.0444,"dy":0.0017,"dx":0.0017,"nx":28,"ny":28,"refTime":"2023-07-20T09:00:00:Z","depth":0,"parameterNumber":2,"parameterNumberName":"U-component_of_WINDS"},"data":[0,0,0,0,0,0,0,0,0,0,0,0,0,0,0,0,0,0,0,0,0,0,0,0,0,0,0,0,0,0,0,0,0,0,0,0,0,0,0,0,0,0,0,0,0,0,0,0,0,0,0,0,0,0,0,0,0,0,-0.0749,-0.0749,0,-0.0675,-0.0675,-0.0674,-0.0638,-0.0638,-0.0638,-0.0638,-0.0563,-0.0561,-0.0559,0,0,0,0,0,0,0,0,0,0,0,0,0,-0.0862,-0.086,-0.075,-0.0749,-0.0748,-0.0676,-0.0674,-0.0673,-0.0638,-0.0638,-0.0638,-0.0638,-0.0564,-0.0561,-0.0559,0,0,0,0,0,0,0,0,0,0,0,0,0,-0.0803,-0.0859,-0.075,-0.0721,-0.0718,-0.0676,-0.0674,-0.0673,-0.0638,-0.0638,-0.0638,-0.0638,-0.0564,-0.0561,-0.0558,-0.0539,0,0,-0.0549,-0.0548,0,0,0,0,0,0,0,0,-0.0806,-0.0799,-0.0726,-0.0723,-0.0719,-0.0666,-0.0686,-0.0628,-0.0638,-0.0669,-0.0638,-0.0638,-0.0597,-0.0592,-0.0578,-0.0535,-0.0532,-0.0549,-0.0547,-0.0546,-0.0545,0,0,0,0,0,0,0,-0.081,-0.0802,-0.072,-0.0725,-0.0721,-0.0713,-0.0704,-0.0675,-0.0634,-0.0666,-0.0663,-0.0655,-0.0595,-0.0581,-0.0576,-0.0531,-0.0549,-0.0546,-0.0544,-0.0543,-0.0469,-0.0469,0,0,0,0,0,0,-0.0819,-0.0805,-0.0723,-0.0718,-0.0764,-0.0711,-0.0701,-0.0683,-0.0634,-0.0626,-0.0655,-0.0653,-0.0586,-0.0579,-0.0573,-0.0546,-0.0546,-0.0543,-0.0541,-0.0469,-0.0469,-0.0469,0,0,0,0,0,0,-0.0821,-0.0812,-0.0726,-0.0761,-0.0749,-0.0709,-0.0689,-0.0682,-0.0667,-0.0625,-0.0618,-0.0647,-0.0586,-0.0577,-0.0548,-0.0543,-0.0541,-0.0539,-0.0469,-0.0469,-0.0469,-0.0494,0,0,0,0,0,0,-0.0825,-0.0813,-0.0805,-0.0761,-0.0747,-0.0701,-0.0688,-0.068,-0.0662,-0.0659,-0.0616,-0.0609,-0.0585,-0.0552,-0.0545,-0.0539,-0.0536,-0.047,-0.0469,-0.0469,-0.0493,-0.0495,-0.0496,0,0,0,0,0,-0.0829,-0.0815,-0.0805,-0.0795,-0.0736,-0.0701,-0.0694,-0.0666,-0.0661,-0.0653,-0.0627,-0.0611,-0.0545,-0.055,-0.0541,-0.0534,-0.047,-0.0469,-0.0469,-0.0493,-0.0494,-0.0496,0,0,0,0,0,0,-0.0859,-0.0809,-0.0797,-0.0768,-0.0739,-0.0695,-0.0684,-0.0668,-0.064,-0.0639,-0.0605,-0.0596,-0.057,-0.0549,-0.0555,-0.0513,-0.0506,-0.0504,-0.0527,-0.0528,-0.053,-0.0535,-0.0534,0,0,0,0,0,-0.0863,-0.0838,-0.0795,-0.0774,-0.076,-0.0725,-0.0708,-0.0689,-0.0658,-0.0646,-0.0617,-0.0588,-0.0561,-0.0543,-0.0516,-0.049,-0.0481,-0.0482,-0.0483,-0.0484,-0.0483,-0.0468,-0.0467,-0.0468,-0.0468,-0.0468,0,0,-0.087,-0.0839,-0.0825,-0.078,-0.0755,-0.073,-0.0715,-0.0689,-0.0671,-0.0642,-0.0612,-0.059,-0.0556,-0.0528,-0.0514,-0.051,-0.048,-0.0484,-0.0485,-0.0483,-0.0467,-0.0467,-0.0467,-0.0468,-0.0468,-0.0468,0,0,-0.0869,-0.0844,-0.0823,-0.0799,-0.0762,-0.0738,-0.0734,-0.0692,-0.0676,-0.0646,-0.0624,-0.0602,-0.0556,-0.0532,-0.0513,-0.0505,-0.0489,-0.0497,-0.0503,-0.0489,-0.0489,-0.0489,-0.0486,-0.0485,-0.0496,-0.0496,-0.0496,0,-0.0883,-0.0844,-0.0815,-0.0791,-0.0771,-0.0744,-0.0723,-0.0701,-0.0658,-0.0645,-0.0641,-0.0582,-0.0557,-0.0523,-0.0521,-0.0507,-0.0501,-0.0501,-0.0491,-0.0491,-0.049,-0.0487,-0.0486,-0.0497,-0.0497,-0.0496,-0.0496,0,-0.0862,-0.0836,-0.0824,-0.0783,-0.0762,-0.074,-0.0707,-0.069,-0.0673,-0.065,-0.062,-0.0588,-0.0554,-0.0545,-0.0528,-0.0509,-0.0507,-0.0498,-0.049,-0.0492,-0.0488,-0.0486,-0.0498,-0.0498,-0.0498,-0.0497,0,0,-0.0879,-0.0821,-0.0817,-0.0798,-0.0755,-0.0735,-0.0712,-0.0678,-0.0664,-0.0635,-0.0615,-0.0577,-0.0567,-0.0547,-0.0527,-0.0515,-0.051,-0.0506,-0.0505,-0.0508,-0.0487,-0.0494,-0.0493,-0.0499,-0.0499,-0.0499,-0.049,0,-0.0873,-0.0829,-0.0802,-0.077,-0.0745,-0.072,-0.0699,-0.0671,-0.0649,-0.0626,-0.0602,-0.0575,-0.0565,-0.0553,-0.0539,-0.0513,-0.0505,-0.0514,-0.048,-0.0479,-0.0489,-0.0491,-0.0499,-0.0492,-0.0488,-0.0488,-0.0488,0,-0.0859,-0.0831,-0.0796,-0.0756,-0.0745,-0.0727,-0.0694,-0.0672,-0.064,-0.0625,-0.0602,-0.0583,-0.0557,-0.0552,-0.0517,-0.0524,-0.0508,-0.0494,-0.0493,-0.0488,-0.0484,-0.0487,-0.0489,-0.0488,-0.0485,-0.0485,-0.0486,0,-0.0875,-0.0828,-0.08,-0.0785,-0.0738,-0.0726,-0.0706,-0.0674,-0.0656,-0.0627,-0.0615,-0.0584,-0.0567,-0.0544,-0.0517,-0.0515,-0.0484,-0.0477,-0.0471,-0.0472,-0.0465,-0.0466,-0.0465,-0.0456,-0.0456,-0.0456,-0.0456,0,-0.087,-0.085,-0.0807,-0.079,-0.0767,-0.0736,-0.0714,-0.0692,-0.0664,-0.0643,-0.0619,-0.0599,-0.0564,-0.0541,-0.0519,-0.0494,-0.0486,-0.0473,-0.0468,-0.0475,-0.0477,-0.0465,-0.0464,-0.0456,-0.0456,-0.0456,-0.0456,0,-0.0883,-0.0854,-0.0822,-0.0781,-0.077,-0.0754,-0.0719,-0.0702,-0.0679,-0.0653,-0.0645,-0.0609,-0.058,-0.055,-0.0512,-0.0497,-0.0472,-0.0464,-0.0483,-0.048,-0.0475,-0.0476,-0.0466,-0.0464,-0.0457,-0.0457,-0.0457,0,-0.0882,-0.0866,-0.0823,-0.0807,-0.0787,-0.0762,-0.0743,-0.0712,-0.0694,-0.0656,-0.0644,-0.0613,-0.0587,-0.0543,-0.0513,-0.0484,-0.0475,-0.0474,-0.047,-0.0478,-0.0475,-0.0476,-0.0474,-0.0475,-0.0475,-0.0475,-0.0475,0,-0.0884,-0.087,-0.0843,-0.0812,-0.079,-0.0764,-0.0737,-0.0726,-0.069,-0.067,-0.0641,-0.062,-0.0581,-0.0551,-0.0518,-0.0497,-0.048,-0.0477,-0.0474,-0.0481,-0.0492,-0.0486,-0.0486,-0.0477,-0.0477,-0.0477,-0.0477,-0.0476,-0.089,-0.0874,-0.0841,-0.0812,-0.0789,-0.0764,-0.0746,-0.0721,-0.0696,-0.0661,-0.0645,-0.0615,-0.0584,-0.0537,-0.0517,-0.0494,-0.0489,-0.0485,-0.0484,-0.0483,-0.0485,-0.0496,-0.0488,-0.0488,-0.0487,-0.0487,-0.0487,0,-0.089,-0.0867,-0.0841,-0.0804,-0.0782,-0.0768,-0.0737,-0.072,-0.0694,-0.0666,-0.0641,-0.0607,-0.0578,-0.0546,-0.0515,-0.0503,-0.0494,-0.0495,-0.0496,-0.0492,-0.0491,-0.0496,-0.0503,-0.0503,-0.0503,-0.0503,-0.0503,-0.0503,-0.0887,-0.086,-0.0842,-0.0803,-0.0781,-0.0751,-0.0735,-0.0713,-0.069,-0.0653,-0.0629,-0.0608,-0.0579,-0.0546,-0.0519,-0.051,-0.05,-0.0504,-0.0493,-0.0493,-0.0492,-0.049,-0.0495,-0.0502,-0.0502,-0.0495,-0.0495,-0.0495]},{"header":{"parameterUnit":"m.s-1","parameterCategory":1,"la1":30.2991,"la2":30.254,"lo1":-89.0895,"lo2":-89.0444,"dy":0.0017,"dx":0.0017,"nx":28,"ny":28,"refTime":"2023-07-20T09:00:00:Z","depth":0,"parameterNumber":3,"parameterNumberName":"V-component_of_WINDS"},"data":[0,0,0,0,0,0,0,0,0,0,0,0,0,0,0,0,0,0,0,0,0,0,0,0,0,0,0,0,0,0,0,0,0,0,0,0,0,0,0,0,0,0,0,0,0,0,0,0,0,0,0,0,0,0,0,0,0,0,3.4984,3.4984,0,3.4903,3.4902,3.4901,3.48,3.4799,3.4797,3.4796,3.4709,3.4709,3.4708,0,0,0,0,0,0,0,0,0,0,0,0,0,3.5052,3.5051,3.4985,3.4984,3.4983,3.4903,3.4902,3.4901,3.48,3.4799,3.4797,3.4795,3.471,3.4709,3.4708,0,0,0,0,0,0,0,0,0,0,0,0,0,3.5002,3.5051,3.4985,3.4923,3.4917,3.4903,3.4902,3.49,3.4801,3.4799,3.4796,3.4794,3.471,3.4709,3.4708,3.4748,0,0,3.4704,3.4703,0,0,0,0,0,0,0,0,3.5005,3.4999,3.4933,3.4927,3.492,3.4859,3.4894,3.4849,3.4801,3.4845,3.4796,3.4793,3.4761,3.4756,3.4745,3.4744,3.474,3.4704,3.4703,3.4703,3.4702,0,0,0,0,0,0,0,3.5008,3.5002,3.4952,3.4932,3.4924,3.4899,3.4889,3.4885,3.4817,3.4841,3.4833,3.4825,3.4757,3.4747,3.4743,3.4739,3.4704,3.4703,3.4702,3.4702,3.4765,3.4767,0,0,0,0,0,0,3.5021,3.5006,3.4955,3.495,3.4957,3.4899,3.4888,3.4881,3.4817,3.4805,3.4827,3.4821,3.475,3.4744,3.4739,3.4781,3.4703,3.4701,3.4701,3.4762,3.4765,3.4768,0,0,0,0,0,0,3.5023,3.5018,3.4958,3.4976,3.4966,3.4901,3.4893,3.4881,3.487,3.4807,3.4794,3.4829,3.4748,3.4741,3.4746,3.4777,3.4701,3.47,3.4759,3.4763,3.4766,3.4866,0,0,0,0,0,0,3.5025,3.5019,3.5034,3.4977,3.4966,3.4968,3.4895,3.4881,3.4869,3.486,3.4805,3.4794,3.4746,3.4749,3.4745,3.4774,3.4699,3.4756,3.4761,3.4765,3.486,3.4873,3.4884,0,0,0,0,0,3.5028,3.5065,3.5035,3.503,3.4983,3.497,3.4963,3.4907,3.4872,3.4886,3.4845,3.4796,3.4774,3.475,3.4745,3.4774,3.4754,3.476,3.4765,3.4855,3.487,3.4884,0,0,0,0,0,0,3.5126,3.5056,3.5023,3.5042,3.5013,3.4953,3.4969,3.4926,3.4905,3.4897,3.4828,3.4817,3.483,3.4802,3.4777,3.4809,3.4757,3.4762,3.4827,3.4841,3.4853,3.4859,3.4698,0,0,0,0,0,3.5151,3.5146,3.5085,3.5108,3.5095,3.5035,3.5027,3.4986,3.4953,3.494,3.4899,3.4868,3.4853,3.4846,3.4829,3.4855,3.4842,3.4873,3.4885,3.4895,3.49,3.4911,3.4924,3.4786,3.4786,3.4785,0,0,3.52,3.5161,3.5162,3.5127,3.5099,3.5095,3.5025,3.5024,3.502,3.4939,3.4942,3.4911,3.4871,3.4887,3.4892,3.4865,3.4935,3.4902,3.4911,3.491,3.4918,3.4931,3.4943,3.4789,3.4789,3.4788,0,0,3.5288,3.5259,3.5275,3.5249,3.5208,3.5168,3.5172,3.5118,3.5095,3.5097,3.5036,3.503,3.5008,3.4982,3.4966,3.5045,3.4998,3.5041,3.5104,3.5116,3.5126,3.5136,3.5164,3.5174,3.5046,3.5046,3.5047,0,3.5355,3.5347,3.5288,3.5291,3.5277,3.5204,3.5219,3.5196,3.5153,3.5144,3.5114,3.5084,3.5052,3.5061,3.5081,3.507,3.5072,3.5047,3.513,3.5139,3.5146,3.5172,3.5183,3.5052,3.5051,3.5051,3.505,0,3.5431,3.5427,3.5444,3.5405,3.5392,3.5402,3.5343,3.5337,3.5298,3.5261,3.5264,3.5223,3.5197,3.5196,3.5158,3.5199,3.5183,3.5143,3.5089,3.5166,3.5189,3.5198,3.506,3.5058,3.5056,3.5055,0,0,3.5578,3.5506,3.5514,3.5495,3.5445,3.544,3.5445,3.5421,3.5417,3.539,3.5392,3.5375,3.5337,3.5319,3.5277,3.5287,3.5352,3.5244,3.5242,3.5266,3.5395,3.5426,3.5439,3.5321,3.5323,3.5324,3.5398,0,3.5657,3.5663,3.561,3.5631,3.5626,3.5557,3.5561,3.5531,3.5496,3.5487,3.5448,3.5437,3.5387,3.5376,3.5383,3.5343,3.5377,3.5336,3.5322,3.5322,3.5334,3.545,3.5483,3.5555,3.5407,3.5408,3.5409,0,3.575,3.5728,3.5748,3.5697,3.5693,3.5699,3.5672,3.5664,3.5627,3.5601,3.5582,3.5534,3.5535,3.5484,3.5484,3.5458,3.5449,3.5428,3.5429,3.5425,3.537,3.545,3.5577,3.5588,3.5423,3.5422,3.5421,0,3.5855,3.5831,3.584,3.5826,3.5767,3.5772,3.5747,3.5709,3.5698,3.5674,3.5666,3.5642,3.5629,3.5612,3.5558,3.5527,3.5565,3.551,3.5542,3.5544,3.5553,3.5553,3.5681,3.5548,3.5548,3.5548,3.5548,0,3.5949,3.5964,3.5886,3.5892,3.5906,3.5845,3.5861,3.5829,3.5796,3.5793,3.5732,3.5731,3.566,3.5651,3.5609,3.5615,3.561,3.5588,3.5577,3.5594,3.5596,3.5586,3.558,3.5551,3.555,3.555,3.5549,0,3.6069,3.6018,3.6023,3.5967,3.5953,3.5966,3.5918,3.592,3.5882,3.5879,3.5875,3.5815,3.5801,3.5746,3.5718,3.569,3.571,3.5688,3.5723,3.5715,3.5751,3.5748,3.5876,3.589,3.5749,3.5751,3.5752,0,3.6132,3.6142,3.6087,3.6081,3.606,3.6052,3.604,3.5979,3.597,3.5929,3.5936,3.5918,3.5899,3.588,3.5833,3.5811,3.5788,3.5835,3.5784,3.5801,3.5789,3.5789,3.5789,3.5845,3.5847,3.5849,3.585,0,3.6249,3.6223,3.6209,3.6186,3.6174,3.6153,3.6129,3.6127,3.606,3.6052,3.6037,3.6023,3.5995,3.5977,3.5948,3.5921,3.5875,3.5866,3.5873,3.589,3.5909,3.5899,3.5752,3.5863,3.5862,3.5861,3.586,3.586,3.6342,3.6347,3.631,3.6296,3.6271,3.625,3.6249,3.6211,3.6198,3.6172,3.6137,3.6126,3.6089,3.6045,3.6023,3.6013,3.5987,3.5996,3.5999,3.6002,3.601,3.5911,3.6007,3.6007,3.6006,3.6006,3.6006,0,3.6455,3.6428,3.6416,3.6384,3.6373,3.6331,3.6301,3.6295,3.6287,3.6257,3.624,3.6223,3.6205,3.6158,3.6135,3.6136,3.6114,3.6132,3.6131,3.6126,3.6035,3.6031,3.6151,3.6151,3.6151,3.6151,3.6151,3.6151,3.6513,3.6521,3.6491,3.6485,3.6457,3.6447,3.6434,3.6413,3.6389,3.6373,3.6358,3.6328,3.629,3.6264,3.6245,3.6232,3.6226,3.6251,3.6231,3.6146,3.6132,3.6119,3.6116,3.6251,3.6251,3.6322,3.6323,3.6324]}]]